owner,sensor,date,latitude,longitude,air_pressure(mBar),qcFlag 
WAVCIS,ioos:station:WAVCIS:CSI06:1,2016-09-01T00:00:00Z,28.8667,-90.4833,1008.48,11111222 
WAVCIS,ioos:station:WAVCIS:CSI06:1,2016-09-01T01:00:00Z,28.8667,-90.4833,1008.97,11111222 
WAVCIS,ioos:station:WAVCIS:CSI06:1,2016-09-01T02:00:00Z,28.8667,-90.4833,1009.43,11111222 
WAVCIS,ioos:station:WAVCIS:CSI06:1,2016-09-01T03:00:00Z,28.8667,-90.4833,1010.15,11111222 
WAVCIS,ioos:station:WAVCIS:CSI06:1,2016-09-01T04:00:00Z,28.8667,-90.4833,1010.01,11111222 
WAVCIS,ioos:station:WAVCIS:CSI06:1,2016-09-01T05:00:00Z,28.8667,-90.4833,1009.58,11111222 
WAVCIS,ioos:station:WAVCIS:CSI06:1,2016-09-01T06:00:00Z,28.8667,-90.4833,1009.32,11111222 
WAVCIS,ioos:station:WAVCIS:CSI06:1,2016-09-01T07:00:00Z,28.8667,-90.4833,1009.13,11111222 
WAVCIS,ioos:station:WAVCIS:CSI06:1,2016-09-01T08:00:00Z,28.8667,-90.4833,1008.76,11111222 
WAVCIS,ioos:station:WAVCIS:CSI06:1,2016-09-01T09:00:00Z,28.8667,-90.4833,1008.22,11111222 
WAVCIS,ioos:station:WAVCIS:CSI06:1,2016-09-01T10:00:00Z,28.8667,-90.4833,1008.01,11111222 
WAVCIS,ioos:station:WAVCIS:CSI06:1,2016-09-01T11:00:00Z,28.8667,-90.4833,1007.92,11111222 
WAVCIS,ioos:station:WAVCIS:CSI06:1,2016-09-01T12:00:00Z,28.8667,-90.4833,1008.24,11111222 
WAVCIS,ioos:station:WAVCIS:CSI06:1,2016-09-01T13:00:00Z,28.8667,-90.4833,1008.55,11111222 
WAVCIS,ioos:station:WAVCIS:CSI06:1,2016-09-01T14:00:00Z,28.8667,-90.4833,1008.8,11111222 
WAVCIS,ioos:station:WAVCIS:CSI06:1,2016-09-01T15:00:00Z,28.8667,-90.4833,1009.18,11111222 
WAVCIS,ioos:station:WAVCIS:CSI06:1,2016-09-01T16:00:00Z,28.8667,-90.4833,1009.52,11111222 
WAVCIS,ioos:station:WAVCIS:CSI06:1,2016-09-01T17:00:00Z,28.8667,-90.4833,1009.14,11111222 
WAVCIS,ioos:station:WAVCIS:CSI06:1,2016-09-01T18:00:00Z,28.8667,-90.4833,1008.63,11111222 
WAVCIS,ioos:station:WAVCIS:CSI06:1,2016-09-01T19:00:00Z,28.8667,-90.4833,1008.35,11111222 
WAVCIS,ioos:station:WAVCIS:CSI06:1,2016-09-01T20:00:00Z,28.8667,-90.4833,1008.2,11111222 
WAVCIS,ioos:station:WAVCIS:CSI06:1,2016-09-01T21:00:00Z,28.8667,-90.4833,1007.86,11111222 
WAVCIS,ioos:station:WAVCIS:CSI06:1,2016-09-01T22:00:00Z,28.8667,-90.4833,1007.72,11111222 
WAVCIS,ioos:station:WAVCIS:CSI06:1,2016-09-01T23:00:00Z,28.8667,-90.4833,1007.97,11111222 
WAVCIS,ioos:station:WAVCIS:CSI06:1,2016-09-02T00:00:00Z,28.8667,-90.4833,1008.37,11111222 
WAVCIS,ioos:station:WAVCIS:CSI06:1,2016-09-02T01:00:00Z,28.8667,-90.4833,1008.76,11111222 
WAVCIS,ioos:station:WAVCIS:CSI06:1,2016-09-02T02:00:00Z,28.8667,-90.4833,1009.05,11111222 
WAVCIS,ioos:station:WAVCIS:CSI06:1,2016-09-02T03:00:00Z,28.8667,-90.4833,1009.9,11111222 
WAVCIS,ioos:station:WAVCIS:CSI06:1,2016-09-02T04:00:00Z,28.8667,-90.4833,1010.17,11111222 
WAVCIS,ioos:station:WAVCIS:CSI06:1,2016-09-02T05:00:00Z,28.8667,-90.4833,1010.41,11111222 
WAVCIS,ioos:station:WAVCIS:CSI06:1,2016-09-02T06:00:00Z,28.8667,-90.4833,1009.91,11111222 
WAVCIS,ioos:station:WAVCIS:CSI06:1,2016-09-02T07:00:00Z,28.8667,-90.4833,1009.46,11111222 
WAVCIS,ioos:station:WAVCIS:CSI06:1,2016-09-02T08:00:00Z,28.8667,-90.4833,1009.86,11111222 
WAVCIS,ioos:station:WAVCIS:CSI06:1,2016-09-02T09:00:00Z,28.8667,-90.4833,1010.31,11111222 
WAVCIS,ioos:station:WAVCIS:CSI06:1,2016-09-02T10:00:00Z,28.8667,-90.4833,1010.51,11111222 
WAVCIS,ioos:station:WAVCIS:CSI06:1,2016-09-02T11:00:00Z,28.8667,-90.4833,1011.02,11111222 
WAVCIS,ioos:station:WAVCIS:CSI06:1,2016-09-02T12:00:00Z,28.8667,-90.4833,1011.31,11111222 
WAVCIS,ioos:station:WAVCIS:CSI06:1,2016-09-02T13:00:00Z,28.8667,-90.4833,1011.66,11111222 
WAVCIS,ioos:station:WAVCIS:CSI06:1,2016-09-02T14:00:00Z,28.8667,-90.4833,1011.73,11111222 
WAVCIS,ioos:station:WAVCIS:CSI06:1,2016-09-02T15:00:00Z,28.8667,-90.4833,1012.11,11111222 
WAVCIS,ioos:station:WAVCIS:CSI06:1,2016-09-02T16:00:00Z,28.8667,-90.4833,1012.32,11111222 
WAVCIS,ioos:station:WAVCIS:CSI06:1,2016-09-02T17:00:00Z,28.8667,-90.4833,1012.46,11111222 
WAVCIS,ioos:station:WAVCIS:CSI06:1,2016-09-02T18:00:00Z,28.8667,-90.4833,1012.35,11111222 
WAVCIS,ioos:station:WAVCIS:CSI06:1,2016-09-02T19:00:00Z,28.8667,-90.4833,1012.14,11111222 
WAVCIS,ioos:station:WAVCIS:CSI06:1,2016-09-02T20:00:00Z,28.8667,-90.4833,1011.79,11111222 
WAVCIS,ioos:station:WAVCIS:CSI06:1,2016-09-02T21:00:00Z,28.8667,-90.4833,1011.2,11111222 
WAVCIS,ioos:station:WAVCIS:CSI06:1,2016-09-02T22:00:00Z,28.8667,-90.4833,1011.26,11111222 
WAVCIS,ioos:station:WAVCIS:CSI06:1,2016-09-02T23:00:00Z,28.8667,-90.4833,1011.25,11111222 
WAVCIS,ioos:station:WAVCIS:CSI06:1,2016-09-03T00:00:00Z,28.8667,-90.4833,1011.31,11111222 
WAVCIS,ioos:station:WAVCIS:CSI06:1,2016-09-03T01:00:00Z,28.8667,-90.4833,1011.95,11111222 
WAVCIS,ioos:station:WAVCIS:CSI06:1,2016-09-03T02:00:00Z,28.8667,-90.4833,1012.55,11111222 
WAVCIS,ioos:station:WAVCIS:CSI06:1,2016-09-03T03:00:00Z,28.8667,-90.4833,1012.96,11111222 
WAVCIS,ioos:station:WAVCIS:CSI06:1,2016-09-03T04:00:00Z,28.8667,-90.4833,1013.16,11111222 
WAVCIS,ioos:station:WAVCIS:CSI06:1,2016-09-03T05:00:00Z,28.8667,-90.4833,1013.39,11111222 
WAVCIS,ioos:station:WAVCIS:CSI06:1,2016-09-03T06:00:00Z,28.8667,-90.4833,1013.01,11111222 
WAVCIS,ioos:station:WAVCIS:CSI06:1,2016-09-03T07:00:00Z,28.8667,-90.4833,1012.66,11111222 
WAVCIS,ioos:station:WAVCIS:CSI06:1,2016-09-03T08:00:00Z,28.8667,-90.4833,1012.6,11111222 
WAVCIS,ioos:station:WAVCIS:CSI06:1,2016-09-03T09:00:00Z,28.8667,-90.4833,1012.39,11111222 
WAVCIS,ioos:station:WAVCIS:CSI06:1,2016-09-03T10:00:00Z,28.8667,-90.4833,1012.57,11111222 
WAVCIS,ioos:station:WAVCIS:CSI06:1,2016-09-03T11:00:00Z,28.8667,-90.4833,1012.89,11111222 
WAVCIS,ioos:station:WAVCIS:CSI06:1,2016-09-03T12:00:00Z,28.8667,-90.4833,1013.33,11111222 
WAVCIS,ioos:station:WAVCIS:CSI06:1,2016-09-03T13:00:00Z,28.8667,-90.4833,1013.88,11111222 
WAVCIS,ioos:station:WAVCIS:CSI06:1,2016-09-03T14:00:00Z,28.8667,-90.4833,1013.67,11111222 
WAVCIS,ioos:station:WAVCIS:CSI06:1,2016-09-03T15:00:00Z,28.8667,-90.4833,1014.03,11111222 
WAVCIS,ioos:station:WAVCIS:CSI06:1,2016-09-03T16:00:00Z,28.8667,-90.4833,1014.48,11111222 
WAVCIS,ioos:station:WAVCIS:CSI06:1,2016-09-03T17:00:00Z,28.8667,-90.4833,1014.34,11111222 
WAVCIS,ioos:station:WAVCIS:CSI06:1,2016-09-03T18:00:00Z,28.8667,-90.4833,1014.16,11111222 
WAVCIS,ioos:station:WAVCIS:CSI06:1,2016-09-03T19:00:00Z,28.8667,-90.4833,1013.7,11111222 
WAVCIS,ioos:station:WAVCIS:CSI06:1,2016-09-03T20:00:00Z,28.8667,-90.4833,1013.27,11111222 
WAVCIS,ioos:station:WAVCIS:CSI06:1,2016-09-03T21:00:00Z,28.8667,-90.4833,1012.55,11111222 
WAVCIS,ioos:station:WAVCIS:CSI06:1,2016-09-03T22:00:00Z,28.8667,-90.4833,1013.27,11111222 
WAVCIS,ioos:station:WAVCIS:CSI06:1,2016-09-03T23:00:00Z,28.8667,-90.4833,1013.71,11111222 
WAVCIS,ioos:station:WAVCIS:CSI06:1,2016-09-04T00:00:00Z,28.8667,-90.4833,1013.91,11111222 
WAVCIS,ioos:station:WAVCIS:CSI06:1,2016-09-04T01:00:00Z,28.8667,-90.4833,1014.53,11111222 
WAVCIS,ioos:station:WAVCIS:CSI06:1,2016-09-04T02:00:00Z,28.8667,-90.4833,1014.6,11111222 
WAVCIS,ioos:station:WAVCIS:CSI06:1,2016-09-04T03:00:00Z,28.8667,-90.4833,1014.94,11111222 
WAVCIS,ioos:station:WAVCIS:CSI06:1,2016-09-04T04:00:00Z,28.8667,-90.4833,1014.49,11111222 
WAVCIS,ioos:station:WAVCIS:CSI06:1,2016-09-04T05:00:00Z,28.8667,-90.4833,1014.57,11111222 
WAVCIS,ioos:station:WAVCIS:CSI06:1,2016-09-04T06:00:00Z,28.8667,-90.4833,1014.58,11111222 
WAVCIS,ioos:station:WAVCIS:CSI06:1,2016-09-04T07:00:00Z,28.8667,-90.4833,1014.11,11111222 
WAVCIS,ioos:station:WAVCIS:CSI06:1,2016-09-04T08:00:00Z,28.8667,-90.4833,1014.1,11111222 
WAVCIS,ioos:station:WAVCIS:CSI06:1,2016-09-04T09:00:00Z,28.8667,-90.4833,1014.14,11111222 
WAVCIS,ioos:station:WAVCIS:CSI06:1,2016-09-04T10:00:00Z,28.8667,-90.4833,1014.36,11111222 
WAVCIS,ioos:station:WAVCIS:CSI06:1,2016-09-04T11:00:00Z,28.8667,-90.4833,1014.44,11111222 
WAVCIS,ioos:station:WAVCIS:CSI06:1,2016-09-04T12:00:00Z,28.8667,-90.4833,1015.34,11111222 
WAVCIS,ioos:station:WAVCIS:CSI06:1,2016-09-04T13:00:00Z,28.8667,-90.4833,1015.86,11111222 
WAVCIS,ioos:station:WAVCIS:CSI06:1,2016-09-04T14:00:00Z,28.8667,-90.4833,1016.46,11111222 
WAVCIS,ioos:station:WAVCIS:CSI06:1,2016-09-04T15:00:00Z,28.8667,-90.4833,1017.11,11111222 
WAVCIS,ioos:station:WAVCIS:CSI06:1,2016-09-04T16:00:00Z,28.8667,-90.4833,1017.25,11111222 
WAVCIS,ioos:station:WAVCIS:CSI06:1,2016-09-04T17:00:00Z,28.8667,-90.4833,1017.07,11111222 
WAVCIS,ioos:station:WAVCIS:CSI06:1,2016-09-04T18:00:00Z,28.8667,-90.4833,1016.84,11111222 
WAVCIS,ioos:station:WAVCIS:CSI06:1,2016-09-04T19:00:00Z,28.8667,-90.4833,1016.59,11111222 
WAVCIS,ioos:station:WAVCIS:CSI06:1,2016-09-04T20:00:00Z,28.8667,-90.4833,1016.01,11111222 
WAVCIS,ioos:station:WAVCIS:CSI06:1,2016-09-04T21:00:00Z,28.8667,-90.4833,1015.9,11111222 
WAVCIS,ioos:station:WAVCIS:CSI06:1,2016-09-04T22:00:00Z,28.8667,-90.4833,1015.86,11111222 
WAVCIS,ioos:station:WAVCIS:CSI06:1,2016-09-04T23:00:00Z,28.8667,-90.4833,1016.31,11111222 
WAVCIS,ioos:station:WAVCIS:CSI06:1,2016-09-05T00:00:00Z,28.8667,-90.4833,1016.45,11111222 
WAVCIS,ioos:station:WAVCIS:CSI06:1,2016-09-05T01:00:00Z,28.8667,-90.4833,1016.79,11111222 
WAVCIS,ioos:station:WAVCIS:CSI06:1,2016-09-05T02:00:00Z,28.8667,-90.4833,1017.28,11111222 
WAVCIS,ioos:station:WAVCIS:CSI06:1,2016-09-05T03:00:00Z,28.8667,-90.4833,1017.64,11111222 
WAVCIS,ioos:station:WAVCIS:CSI06:1,2016-09-05T04:00:00Z,28.8667,-90.4833,1017.7,11111222 
WAVCIS,ioos:station:WAVCIS:CSI06:1,2016-09-05T05:00:00Z,28.8667,-90.4833,1017.61,11111222 
WAVCIS,ioos:station:WAVCIS:CSI06:1,2016-09-05T06:00:00Z,28.8667,-90.4833,1017.2,11111222 
WAVCIS,ioos:station:WAVCIS:CSI06:1,2016-09-05T07:00:00Z,28.8667,-90.4833,1016.95,11111222 
WAVCIS,ioos:station:WAVCIS:CSI06:1,2016-09-05T08:00:00Z,28.8667,-90.4833,1016.92,11111222 
WAVCIS,ioos:station:WAVCIS:CSI06:1,2016-09-05T09:00:00Z,28.8667,-90.4833,1017.1,11111222 
WAVCIS,ioos:station:WAVCIS:CSI06:1,2016-09-05T10:00:00Z,28.8667,-90.4833,1017.02,11111222 
WAVCIS,ioos:station:WAVCIS:CSI06:1,2016-09-05T11:00:00Z,28.8667,-90.4833,1017.56,11111222 
WAVCIS,ioos:station:WAVCIS:CSI06:1,2016-09-05T12:00:00Z,28.8667,-90.4833,1018.07,11111222 
WAVCIS,ioos:station:WAVCIS:CSI06:1,2016-09-05T13:00:00Z,28.8667,-90.4833,1018.97,11111222 
WAVCIS,ioos:station:WAVCIS:CSI06:1,2016-09-05T14:00:00Z,28.8667,-90.4833,1019.32,11111222 
WAVCIS,ioos:station:WAVCIS:CSI06:1,2016-09-05T15:00:00Z,28.8667,-90.4833,1020.11,11111222 
WAVCIS,ioos:station:WAVCIS:CSI06:1,2016-09-05T16:00:00Z,28.8667,-90.4833,1019.89,11111222 
WAVCIS,ioos:station:WAVCIS:CSI06:1,2016-09-05T17:00:00Z,28.8667,-90.4833,1020.21,11111222 
WAVCIS,ioos:station:WAVCIS:CSI06:1,2016-09-05T18:00:00Z,28.8667,-90.4833,1019.96,11111222 
WAVCIS,ioos:station:WAVCIS:CSI06:1,2016-09-05T19:00:00Z,28.8667,-90.4833,1019.87,11111222 
WAVCIS,ioos:station:WAVCIS:CSI06:1,2016-09-05T20:00:00Z,28.8667,-90.4833,1019.41,11111222 
WAVCIS,ioos:station:WAVCIS:CSI06:1,2016-09-05T21:00:00Z,28.8667,-90.4833,1019.1,11111222 
WAVCIS,ioos:station:WAVCIS:CSI06:1,2016-09-05T22:00:00Z,28.8667,-90.4833,1018.93,11111222 
WAVCIS,ioos:station:WAVCIS:CSI06:1,2016-09-05T23:00:00Z,28.8667,-90.4833,1018.59,11111222 
WAVCIS,ioos:station:WAVCIS:CSI06:1,2016-09-06T00:00:00Z,28.8667,-90.4833,1018.46,11111222 
WAVCIS,ioos:station:WAVCIS:CSI06:1,2016-09-06T01:00:00Z,28.8667,-90.4833,1018.48,11111222 
WAVCIS,ioos:station:WAVCIS:CSI06:1,2016-09-06T02:00:00Z,28.8667,-90.4833,1019.14,11111222 
WAVCIS,ioos:station:WAVCIS:CSI06:1,2016-09-06T03:00:00Z,28.8667,-90.4833,1019.78,11111222 
WAVCIS,ioos:station:WAVCIS:CSI06:1,2016-09-06T04:00:00Z,28.8667,-90.4833,1019.81,11111222 
WAVCIS,ioos:station:WAVCIS:CSI06:1,2016-09-06T05:00:00Z,28.8667,-90.4833,1019.84,11111222 
WAVCIS,ioos:station:WAVCIS:CSI06:1,2016-09-06T06:00:00Z,28.8667,-90.4833,1019.61,11111222 
WAVCIS,ioos:station:WAVCIS:CSI06:1,2016-09-06T07:00:00Z,28.8667,-90.4833,1019.42,11111222 
WAVCIS,ioos:station:WAVCIS:CSI06:1,2016-09-06T08:00:00Z,28.8667,-90.4833,1019.19,11111222 
WAVCIS,ioos:station:WAVCIS:CSI06:1,2016-09-06T09:00:00Z,28.8667,-90.4833,1019.2,11111222 
WAVCIS,ioos:station:WAVCIS:CSI06:1,2016-09-06T10:00:00Z,28.8667,-90.4833,1019.04,11111222 
WAVCIS,ioos:station:WAVCIS:CSI06:1,2016-09-06T11:00:00Z,28.8667,-90.4833,1019.69,11111222 
WAVCIS,ioos:station:WAVCIS:CSI06:1,2016-09-06T12:00:00Z,28.8667,-90.4833,1019.85,11111222 
WAVCIS,ioos:station:WAVCIS:CSI06:1,2016-09-06T13:00:00Z,28.8667,-90.4833,1020.88,11111222 
WAVCIS,ioos:station:WAVCIS:CSI06:1,2016-09-06T14:00:00Z,28.8667,-90.4833,1021.13,11111222 
WAVCIS,ioos:station:WAVCIS:CSI06:1,2016-09-06T15:00:00Z,28.8667,-90.4833,1021.51,11111222 
WAVCIS,ioos:station:WAVCIS:CSI06:1,2016-09-06T16:00:00Z,28.8667,-90.4833,1021.96,11111222 
WAVCIS,ioos:station:WAVCIS:CSI06:1,2016-09-06T17:00:00Z,28.8667,-90.4833,1021.85,11111222 
WAVCIS,ioos:station:WAVCIS:CSI06:1,2016-09-06T18:00:00Z,28.8667,-90.4833,1021.27,11111222 
WAVCIS,ioos:station:WAVCIS:CSI06:1,2016-09-06T19:00:00Z,28.8667,-90.4833,1020.94,11111222 
WAVCIS,ioos:station:WAVCIS:CSI06:1,2016-09-06T20:00:00Z,28.8667,-90.4833,1020.15,11111222 
WAVCIS,ioos:station:WAVCIS:CSI06:1,2016-09-06T21:00:00Z,28.8667,-90.4833,1019.81,11111222 
WAVCIS,ioos:station:WAVCIS:CSI06:1,2016-09-06T22:00:00Z,28.8667,-90.4833,1019.66,11111222 
WAVCIS,ioos:station:WAVCIS:CSI06:1,2016-09-06T23:00:00Z,28.8667,-90.4833,1019.56,11111222 
WAVCIS,ioos:station:WAVCIS:CSI06:1,2016-09-07T00:00:00Z,28.8667,-90.4833,1019.35,11111222 
WAVCIS,ioos:station:WAVCIS:CSI06:1,2016-09-07T01:00:00Z,28.8667,-90.4833,1019.64,11111222 
WAVCIS,ioos:station:WAVCIS:CSI06:1,2016-09-07T02:00:00Z,28.8667,-90.4833,1020.14,11111222 
WAVCIS,ioos:station:WAVCIS:CSI06:1,2016-09-07T03:00:00Z,28.8667,-90.4833,1020.19,11111222 
WAVCIS,ioos:station:WAVCIS:CSI06:1,2016-09-07T04:00:00Z,28.8667,-90.4833,1020.08,11111222 
WAVCIS,ioos:station:WAVCIS:CSI06:1,2016-09-07T05:00:00Z,28.8667,-90.4833,1020.04,11111222 
WAVCIS,ioos:station:WAVCIS:CSI06:1,2016-09-07T06:00:00Z,28.8667,-90.4833,1019.54,11111222 
WAVCIS,ioos:station:WAVCIS:CSI06:1,2016-09-07T07:00:00Z,28.8667,-90.4833,1019.35,11111222 
WAVCIS,ioos:station:WAVCIS:CSI06:1,2016-09-07T08:00:00Z,28.8667,-90.4833,1019.14,11111222 
WAVCIS,ioos:station:WAVCIS:CSI06:1,2016-09-07T09:00:00Z,28.8667,-90.4833,1019.27,11111222 
WAVCIS,ioos:station:WAVCIS:CSI06:1,2016-09-07T10:00:00Z,28.8667,-90.4833,1019.6,11111222 
WAVCIS,ioos:station:WAVCIS:CSI06:1,2016-09-07T11:00:00Z,28.8667,-90.4833,1019.98,11111222 
WAVCIS,ioos:station:WAVCIS:CSI06:1,2016-09-07T12:00:00Z,28.8667,-90.4833,1020.38,11111222 
WAVCIS,ioos:station:WAVCIS:CSI06:1,2016-09-07T13:00:00Z,28.8667,-90.4833,1020.93,11111222 
WAVCIS,ioos:station:WAVCIS:CSI06:1,2016-09-07T14:00:00Z,28.8667,-90.4833,1021.19,11111222 
WAVCIS,ioos:station:WAVCIS:CSI06:1,2016-09-07T15:00:00Z,28.8667,-90.4833,1021.44,11111222 
WAVCIS,ioos:station:WAVCIS:CSI06:1,2016-09-07T17:00:00Z,28.8667,-90.4833,1021.81,11111222 
WAVCIS,ioos:station:WAVCIS:CSI06:1,2016-09-07T18:00:00Z,28.8667,-90.4833,1021.49,11111222 
WAVCIS,ioos:station:WAVCIS:CSI06:1,2016-09-07T19:00:00Z,28.8667,-90.4833,1021.22,11111222 
WAVCIS,ioos:station:WAVCIS:CSI06:1,2016-09-07T20:00:00Z,28.8667,-90.4833,1020.0,11111222 
WAVCIS,ioos:station:WAVCIS:CSI06:1,2016-09-07T21:00:00Z,28.8667,-90.4833,1019.42,11111222 
WAVCIS,ioos:station:WAVCIS:CSI06:1,2016-09-07T22:00:00Z,28.8667,-90.4833,1019.13,11111222 
WAVCIS,ioos:station:WAVCIS:CSI06:1,2016-09-07T23:00:00Z,28.8667,-90.4833,1018.93,11111222 
WAVCIS,ioos:station:WAVCIS:CSI06:1,2016-09-08T00:00:00Z,28.8667,-90.4833,1018.77,11111222 
WAVCIS,ioos:station:WAVCIS:CSI06:1,2016-09-08T01:00:00Z,28.8667,-90.4833,1019.08,11111222 
WAVCIS,ioos:station:WAVCIS:CSI06:1,2016-09-08T02:00:00Z,28.8667,-90.4833,1019.37,11111222 
WAVCIS,ioos:station:WAVCIS:CSI06:1,2016-09-08T03:00:00Z,28.8667,-90.4833,1019.18,11111222 
WAVCIS,ioos:station:WAVCIS:CSI06:1,2016-09-08T04:00:00Z,28.8667,-90.4833,1019.08,11111222 
WAVCIS,ioos:station:WAVCIS:CSI06:1,2016-09-08T05:00:00Z,28.8667,-90.4833,1018.84,11111222 
WAVCIS,ioos:station:WAVCIS:CSI06:1,2016-09-08T06:00:00Z,28.8667,-90.4833,1018.7,11111222 
WAVCIS,ioos:station:WAVCIS:CSI06:1,2016-09-08T07:00:00Z,28.8667,-90.4833,1018.36,11111222 
WAVCIS,ioos:station:WAVCIS:CSI06:1,2016-09-08T08:00:00Z,28.8667,-90.4833,1017.99,11111222 
WAVCIS,ioos:station:WAVCIS:CSI06:1,2016-09-08T09:00:00Z,28.8667,-90.4833,1017.5,11111222 
WAVCIS,ioos:station:WAVCIS:CSI06:1,2016-09-08T10:00:00Z,28.8667,-90.4833,1017.63,11111222 
WAVCIS,ioos:station:WAVCIS:CSI06:1,2016-09-08T11:00:00Z,28.8667,-90.4833,1017.63,11111222 
WAVCIS,ioos:station:WAVCIS:CSI06:1,2016-09-08T12:00:00Z,28.8667,-90.4833,1017.91,11111222 
WAVCIS,ioos:station:WAVCIS:CSI06:1,2016-09-08T13:00:00Z,28.8667,-90.4833,1018.03,11111222 
WAVCIS,ioos:station:WAVCIS:CSI06:1,2016-09-08T14:00:00Z,28.8667,-90.4833,1018.19,11111222 
WAVCIS,ioos:station:WAVCIS:CSI06:1,2016-09-08T15:00:00Z,28.8667,-90.4833,1018.53,11111222 
WAVCIS,ioos:station:WAVCIS:CSI06:1,2016-09-08T16:00:00Z,28.8667,-90.4833,1018.74,11111222 
WAVCIS,ioos:station:WAVCIS:CSI06:1,2016-09-08T17:00:00Z,28.8667,-90.4833,1018.38,11111222 
WAVCIS,ioos:station:WAVCIS:CSI06:1,2016-09-08T18:00:00Z,28.8667,-90.4833,1018.09,11111222 
WAVCIS,ioos:station:WAVCIS:CSI06:1,2016-09-08T19:00:00Z,28.8667,-90.4833,1017.57,11111222 
WAVCIS,ioos:station:WAVCIS:CSI06:1,2016-09-08T20:00:00Z,28.8667,-90.4833,1016.79,11111222 
WAVCIS,ioos:station:WAVCIS:CSI06:1,2016-09-08T21:00:00Z,28.8667,-90.4833,1016.29,11111222 
WAVCIS,ioos:station:WAVCIS:CSI06:1,2016-09-08T22:00:00Z,28.8667,-90.4833,1015.97,11111222 
WAVCIS,ioos:station:WAVCIS:CSI06:1,2016-09-08T23:00:00Z,28.8667,-90.4833,1015.78,11111222 
WAVCIS,ioos:station:WAVCIS:CSI06:1,2016-09-09T00:00:00Z,28.8667,-90.4833,1015.53,11111222 
WAVCIS,ioos:station:WAVCIS:CSI06:1,2016-09-09T01:00:00Z,28.8667,-90.4833,1015.62,11111222 
WAVCIS,ioos:station:WAVCIS:CSI06:1,2016-09-09T02:00:00Z,28.8667,-90.4833,1016.09,11111222 
WAVCIS,ioos:station:WAVCIS:CSI06:1,2016-09-09T03:00:00Z,28.8667,-90.4833,1016.7,11111222 
WAVCIS,ioos:station:WAVCIS:CSI06:1,2016-09-09T04:00:00Z,28.8667,-90.4833,1016.7,11111222 
WAVCIS,ioos:station:WAVCIS:CSI06:1,2016-09-09T05:00:00Z,28.8667,-90.4833,1016.2,11111222 
WAVCIS,ioos:station:WAVCIS:CSI06:1,2016-09-09T06:00:00Z,28.8667,-90.4833,1015.95,11111222 
WAVCIS,ioos:station:WAVCIS:CSI06:1,2016-09-09T07:00:00Z,28.8667,-90.4833,1015.71,11111222 
WAVCIS,ioos:station:WAVCIS:CSI06:1,2016-09-09T08:00:00Z,28.8667,-90.4833,1015.23,11111222 
WAVCIS,ioos:station:WAVCIS:CSI06:1,2016-09-09T09:00:00Z,28.8667,-90.4833,1015.18,11111222 
WAVCIS,ioos:station:WAVCIS:CSI06:1,2016-09-09T10:00:00Z,28.8667,-90.4833,1015.27,11111222 
WAVCIS,ioos:station:WAVCIS:CSI06:1,2016-09-09T11:00:00Z,28.8667,-90.4833,1015.28,11111222 
WAVCIS,ioos:station:WAVCIS:CSI06:1,2016-09-09T12:00:00Z,28.8667,-90.4833,1015.4,11111222 
WAVCIS,ioos:station:WAVCIS:CSI06:1,2016-09-09T13:00:00Z,28.8667,-90.4833,1015.83,11111222 
WAVCIS,ioos:station:WAVCIS:CSI06:1,2016-09-09T14:00:00Z,28.8667,-90.4833,1016.28,11111222 
WAVCIS,ioos:station:WAVCIS:CSI06:1,2016-09-09T15:00:00Z,28.8667,-90.4833,1016.56,11111222 
WAVCIS,ioos:station:WAVCIS:CSI06:1,2016-09-09T16:00:00Z,28.8667,-90.4833,1016.86,11111222 
WAVCIS,ioos:station:WAVCIS:CSI06:1,2016-09-09T17:00:00Z,28.8667,-90.4833,1016.7,11111222 
WAVCIS,ioos:station:WAVCIS:CSI06:1,2016-09-09T18:00:00Z,28.8667,-90.4833,1016.23,11111222 
WAVCIS,ioos:station:WAVCIS:CSI06:1,2016-09-09T19:00:00Z,28.8667,-90.4833,1015.77,11111222 
WAVCIS,ioos:station:WAVCIS:CSI06:1,2016-09-09T20:00:00Z,28.8667,-90.4833,1015.41,11111222 
WAVCIS,ioos:station:WAVCIS:CSI06:1,2016-09-09T21:00:00Z,28.8667,-90.4833,1015.17,11111222 
WAVCIS,ioos:station:WAVCIS:CSI06:1,2016-09-09T22:00:00Z,28.8667,-90.4833,1015.03,11111222 
WAVCIS,ioos:station:WAVCIS:CSI06:1,2016-09-09T23:00:00Z,28.8667,-90.4833,1014.99,11111222 
WAVCIS,ioos:station:WAVCIS:CSI06:1,2016-09-10T00:00:00Z,28.8667,-90.4833,1015.29,11111222 
WAVCIS,ioos:station:WAVCIS:CSI06:1,2016-09-10T01:00:00Z,28.8667,-90.4833,1015.9,11111222 
WAVCIS,ioos:station:WAVCIS:CSI06:1,2016-09-10T02:00:00Z,28.8667,-90.4833,1016.5,11111222 
WAVCIS,ioos:station:WAVCIS:CSI06:1,2016-09-10T03:00:00Z,28.8667,-90.4833,1016.93,11111222 
WAVCIS,ioos:station:WAVCIS:CSI06:1,2016-09-10T04:00:00Z,28.8667,-90.4833,1016.8,11111222 
WAVCIS,ioos:station:WAVCIS:CSI06:1,2016-09-10T05:00:00Z,28.8667,-90.4833,1016.28,11111222 
WAVCIS,ioos:station:WAVCIS:CSI06:1,2016-09-10T06:00:00Z,28.8667,-90.4833,1015.99,11111222 
WAVCIS,ioos:station:WAVCIS:CSI06:1,2016-09-10T07:00:00Z,28.8667,-90.4833,1015.81,11111222 
WAVCIS,ioos:station:WAVCIS:CSI06:1,2016-09-10T08:00:00Z,28.8667,-90.4833,1015.55,11111222 
WAVCIS,ioos:station:WAVCIS:CSI06:1,2016-09-10T09:00:00Z,28.8667,-90.4833,1015.28,11111222 
WAVCIS,ioos:station:WAVCIS:CSI06:1,2016-09-10T10:00:00Z,28.8667,-90.4833,1015.5,11111222 
WAVCIS,ioos:station:WAVCIS:CSI06:1,2016-09-10T11:00:00Z,28.8667,-90.4833,1016.14,11111222 
WAVCIS,ioos:station:WAVCIS:CSI06:1,2016-09-10T12:00:00Z,28.8667,-90.4833,1016.99,11111222 
WAVCIS,ioos:station:WAVCIS:CSI06:1,2016-09-10T13:00:00Z,28.8667,-90.4833,1017.55,11111222 
WAVCIS,ioos:station:WAVCIS:CSI06:1,2016-09-10T14:00:00Z,28.8667,-90.4833,1018.1,11111222 
WAVCIS,ioos:station:WAVCIS:CSI06:1,2016-09-10T15:00:00Z,28.8667,-90.4833,1018.5,11111222 
WAVCIS,ioos:station:WAVCIS:CSI06:1,2016-09-10T16:00:00Z,28.8667,-90.4833,1018.55,11111222 
WAVCIS,ioos:station:WAVCIS:CSI06:1,2016-09-10T17:00:00Z,28.8667,-90.4833,1018.32,11111222 
WAVCIS,ioos:station:WAVCIS:CSI06:1,2016-09-10T18:00:00Z,28.8667,-90.4833,1017.87,11111222 
WAVCIS,ioos:station:WAVCIS:CSI06:1,2016-09-10T19:00:00Z,28.8667,-90.4833,1017.63,11111222 
WAVCIS,ioos:station:WAVCIS:CSI06:1,2016-09-10T20:00:00Z,28.8667,-90.4833,1017.08,11111222 
WAVCIS,ioos:station:WAVCIS:CSI06:1,2016-09-10T21:00:00Z,28.8667,-90.4833,1017.03,11111222 
WAVCIS,ioos:station:WAVCIS:CSI06:1,2016-09-10T22:00:00Z,28.8667,-90.4833,1016.63,11111222 
WAVCIS,ioos:station:WAVCIS:CSI06:1,2016-09-10T23:00:00Z,28.8667,-90.4833,1017.09,11111222 
WAVCIS,ioos:station:WAVCIS:CSI06:1,2016-09-11T00:00:00Z,28.8667,-90.4833,1016.65,11111222 
WAVCIS,ioos:station:WAVCIS:CSI06:1,2016-09-11T01:00:00Z,28.8667,-90.4833,1016.99,11111222 
WAVCIS,ioos:station:WAVCIS:CSI06:1,2016-09-11T02:00:00Z,28.8667,-90.4833,1017.39,11111222 
WAVCIS,ioos:station:WAVCIS:CSI06:1,2016-09-11T03:00:00Z,28.8667,-90.4833,1017.86,11111222 
WAVCIS,ioos:station:WAVCIS:CSI06:1,2016-09-11T04:00:00Z,28.8667,-90.4833,1018.97,11111222 
WAVCIS,ioos:station:WAVCIS:CSI06:1,2016-09-11T05:00:00Z,28.8667,-90.4833,1018.67,11111222 
WAVCIS,ioos:station:WAVCIS:CSI06:1,2016-09-11T06:00:00Z,28.8667,-90.4833,1017.99,11111222 
WAVCIS,ioos:station:WAVCIS:CSI06:1,2016-09-11T07:00:00Z,28.8667,-90.4833,1017.82,11111222 
WAVCIS,ioos:station:WAVCIS:CSI06:1,2016-09-11T08:00:00Z,28.8667,-90.4833,1017.56,11111222 
WAVCIS,ioos:station:WAVCIS:CSI06:1,2016-09-11T09:00:00Z,28.8667,-90.4833,1017.65,11111222 
WAVCIS,ioos:station:WAVCIS:CSI06:1,2016-09-11T10:00:00Z,28.8667,-90.4833,1017.14,11111222 
WAVCIS,ioos:station:WAVCIS:CSI06:1,2016-09-11T11:00:00Z,28.8667,-90.4833,1017.33,11111222 
WAVCIS,ioos:station:WAVCIS:CSI06:1,2016-09-11T12:00:00Z,28.8667,-90.4833,1017.55,11111222 
WAVCIS,ioos:station:WAVCIS:CSI06:1,2016-09-11T13:00:00Z,28.8667,-90.4833,1017.78,11111222 
WAVCIS,ioos:station:WAVCIS:CSI06:1,2016-09-11T14:00:00Z,28.8667,-90.4833,1018.52,11111222 
WAVCIS,ioos:station:WAVCIS:CSI06:1,2016-09-11T15:00:00Z,28.8667,-90.4833,1018.82,11111222 
WAVCIS,ioos:station:WAVCIS:CSI06:1,2016-09-11T16:00:00Z,28.8667,-90.4833,1019.28,11111222 
WAVCIS,ioos:station:WAVCIS:CSI06:1,2016-09-11T17:00:00Z,28.8667,-90.4833,1019.23,11111222 
WAVCIS,ioos:station:WAVCIS:CSI06:1,2016-09-11T18:00:00Z,28.8667,-90.4833,1018.91,11111222 
WAVCIS,ioos:station:WAVCIS:CSI06:1,2016-09-11T19:00:00Z,28.8667,-90.4833,1017.54,11111222 
WAVCIS,ioos:station:WAVCIS:CSI06:1,2016-09-11T20:00:00Z,28.8667,-90.4833,1016.79,11111222 
WAVCIS,ioos:station:WAVCIS:CSI06:1,2016-09-11T21:00:00Z,28.8667,-90.4833,1016.19,11111222 
WAVCIS,ioos:station:WAVCIS:CSI06:1,2016-09-11T22:00:00Z,28.8667,-90.4833,1015.6,11111222 
WAVCIS,ioos:station:WAVCIS:CSI06:1,2016-09-11T23:00:00Z,28.8667,-90.4833,1015.59,11111222 